Location: Austin
(30.3000°N, 97.7500°W)
Time: 12:44:17
(UTC-05:00)

Meteor PRIRODA - Pass Details

Date: 05 September 2024
Orbit: 427 x 442 km, 97.5° (Epoch: 10 September)

Event Time Altitude Azimuth Distance (km) Brightness Sun altitude
Exits shadow 20:33:48 - 147° (SSE) 1,694 5.9 -10.5°
Reaches altitude 10° 20:34:10 10° 145° (SE) 1,547 5.7 -10.6°
Maximum altitude 20:37:16 38° 76° (ENE) 680 3.9 -11.3°
Drops below altitude 10° 20:40:22 10° 6° (N) 1,548 6.2 -11.9°
Sets 20:42:28 0° 358° (N) 2,417 7.3 -12.3°
